Tucson, AZ

11:52 PM MST on September 25, 2016 (GMT -0700)
Tucson International

Weather History for KTUS - October, 2012

Change the Weather History Date:

Tuesday, October 30, 2012

  Actual Average Record
Temperature  
Mean Temperature 72 °F 66 °F  
Max Temperature 88 °F 80 °F 94 °F (2001)
Min Temperature 55 °F 52 °F 26 °F (1971)
Degree Days  
Heating Degree Days 0 2  
Month to date heating degree days 2 21  
Since 1 July heating degree days 2 21  
Cooling Degree Days 7 3  
Month to date cooling degree days 264 208  
Year to date cooling degree days 3526 3115  
Growing Degree Days 22 (Base 50)    
Moisture  
Dew Point 30 °F    
Average Humidity 25    
Maximum Humidity 41    
Minimum Humidity 9    
Precipitation  
Precipitation 0.00 in 0.03 in 1.47 in (1951)
Month to date precipitation T 0.87  
Year to date precipitation 6.70 10.07  
Snow  
Snow 0.00 in - - ()
Month to date snowfall 0.0  
Snow Depth 0.00 in    
Sea Level Pressure  
Sea Level Pressure 29.98 in    
Wind  
Wind Speed 6 mph (South)    
Max Wind Speed 12 mph    
Max Gust Speed 18 mph    
Visibility 10 miles    
Events      
T = Trace of Precipitation, MM = Missing Value Source: NWS Daily Summary

Daily Weather History Graph

Daily Weather History Graph

Search for Another Location

Airport or City:

Trip Planner

Search our weather history database for the weather conditions in past years. The results will help you decide how hot, cold, wet, or windy it might be!

Date:

Astronomy

Oct. 30, 2012 Rise Set
Actual Time 6:39 AM MST 5:35 PM MST
Civil Twilight 6:14 AM MST 6:00 PM MST
Nautical Twilight 5:45 AM MST 6:29 PM MST
Astronomical Twilight 5:16 AM MST 6:57 PM MST
Moon 6:12 PM MST (10/30) 7:24 AM MST (10/30)
Length of Visible Light 11h 46m
Length of Day
10h 55m
Full, 99% of the Moon is Illuminated
Oct 30
Full
Nov 6
Last Quarter
Nov 13
New
Nov 20
First Quarter
Nov 28
Full

Hourly Weather History & Observations

Time (MST) Temp. Dew Point Humidity Pressure Visibility Wind Dir Wind Speed Gust Speed Precip Events Conditions
12:53 AM 60.1 °F 30.9 °F 33% 30.01 in 10.0 mi SE 5.8 mph - N/A   Clear
1:53 AM 57.9 °F 30.0 °F 35% 30.01 in 10.0 mi SSE 5.8 mph - N/A   Clear
2:53 AM 55.9 °F 30.0 °F 37% 30.01 in 10.0 mi SE 8.1 mph - N/A   Clear
3:53 AM 55.9 °F 30.9 °F 39% 30.01 in 10.0 mi SE 5.8 mph - N/A   Clear
4:53 AM 55.9 °F 32.0 °F 40% 30.01 in 10.0 mi SSE 6.9 mph - N/A   Clear
5:53 AM 55.9 °F 30.9 °F 39% 30.02 in 10.0 mi SE 6.9 mph - N/A   Clear
6:53 AM 55.9 °F 30.9 °F 39% 30.04 in 10.0 mi SE 8.1 mph - N/A   Clear
8:53 AM 66.0 °F 33.1 °F 29% 30.04 in 10.0 mi South 9.2 mph - N/A   Clear
9:53 AM 73.0 °F 33.1 °F 23% 30.04 in 10.0 mi Variable 5.8 mph - N/A   Clear
10:53 AM 79.0 °F 32.0 °F 18% 30.02 in 10.0 mi Calm Calm - N/A   Clear
11:53 AM 84.0 °F 32.0 °F 15% 29.99 in 10.0 mi Calm Calm - N/A   Clear
12:53 PM 86.0 °F 28.0 °F 12% 29.95 in 10.0 mi NNW 3.5 mph - N/A   Clear
1:53 PM 86.0 °F 26.1 °F 11% 29.92 in 10.0 mi Calm Calm - N/A   Clear
2:53 PM 87.1 °F 24.1 °F 10% 29.91 in 10.0 mi WSW 6.9 mph - N/A   Clear
3:53 PM 88.0 °F 21.9 °F 9% 29.90 in 10.0 mi WNW 6.9 mph - N/A   Clear
4:53 PM 87.8 °F 24.8 °F 10% 30.01 in 10.0 mi NW 6.9 mph - N/A   Clear
5:53 PM 80.1 °F 28.0 °F 15% 29.91 in 10.0 mi NNW 9.2 mph - N/A   Clear
6:53 PM 77.0 °F 30.0 °F 18% 29.93 in 10.0 mi NNW 5.8 mph - N/A   Clear
7:53 PM 72.0 °F 30.0 °F 21% 29.94 in 10.0 mi WNW 5.8 mph - N/A   Clear
8:53 PM 68.0 °F 30.0 °F 24% 29.95 in 10.0 mi South 3.5 mph - N/A   Clear
9:53 PM 66.0 °F 30.9 °F 27% 29.96 in 10.0 mi SSW 5.8 mph - N/A   Clear
10:53 PM 63.0 °F 30.9 °F 30% 29.96 in 10.0 mi SE 6.9 mph - N/A   Clear
11:53 PM 62.1 °F 28.0 °F 28% 29.96 in 10.0 mi SE 8.1 mph - N/A   Clear